EW8291 Weather Reports


Display with metric or nautical units.
time (UTC)temp
F
wind
direction
speed
MPH
gust
MPH
rain 1hr
in
rain 24hr
in
rain mn
in
humidity
%
barometer
mb
20181120134107 37 112 6.0 12.0 0.01 0.18 0.18 100 1017.0
20181120133607 37 90 8.0 12.0 0.01 0.18 0.18 100 1017.0
20181120133107 37 111 6.0 12.0 0.01 0.18 0.18 100 1017.0
20181120132607 37 89 5.0 10.0 0.02 0.18 0.18 100 1016.0
20181120132107 37 73 7.0 14.0 0.03 0.18 0.18 100 1016.0
20181120131607 37 96 10.0 15.0 0.03 0.18 0.18 100 1016.0
20181120131107 37 150 6.0 12.0 0.04 0.18 0.18 100 1016.0
20181120130607 37 121 5.0 7.0 0.04 0.17 0.17 100 1016.0
20181120130108 36 171 4.0 7.0 0.05 0.17 0.17 100 1016.0
20181120125607 36 168 2.0 5.0 0.06 0.17 0.17 100 1016.0
20181120125108 36 305 2.0 7.0 0.07 0.17 0.17 100 1016.0
20181120124607 36 181 2.0 5.0 0.07 0.17 0.17 100 1016.0
20181120124107 35 135 1.0 2.0 0.08 0.17 0.17 100 1016.0
20181120123607 35 146 2.0 3.0 0.09 0.17 0.17 100 1016.0
20181120123107 35 292 1.0 5.0 0.09 0.17 0.16 100 1016.0
20181120122607 35 292 3.0 6.0 0.09 0.16 0.16 100 1016.0
20181120122107 35 286 4.0 6.0 0.09 0.15 0.15 100 1016.0
20181120121607 35 334 2.0 5.0 0.09 0.15 0.14 100 1016.0
20181120121107 35 22 2.0 5.0 0.08 0.14 0.13 100 1017.0
20181120120607 35 30 2.0 3.0 0.08 0.13 0.13 100 1017.0
20181120120108 35 67 3.0 5.0 0.08 0.13 0.12 100 1017.0
20181120115607 35 75 1.0 3.0 0.07 0.11 0.11 100 1017.0
20181120115107 35 90 3.0 5.0 0.07 0.11 0.10 100 1017.0
20181120114607 36 202 0.0 3.0 0.06 0.10 0.10 100 1017.0
20181120114107 36 216 1.0 3.0 0.06 0.09 0.09 100 1017.0
20181120113607 36 158 1.0 3.0 0.06 0.09 0.08 100 1017.0
20181120113108 36 137 2.0 7.0 0.05 0.07 0.07 100 1017.0
20181120112607 36 167 4.0 7.0 0.05 0.07 0.07 100 1017.0
20181120112107 36 118 4.0 6.0 0.05 0.07 0.06 100 1017.0
20181120111607 36 93 3.0 6.0 0.04 0.06 0.05 100 1017.0
20181120111107 37 119 3.0 5.0 0.05 0.06 0.05 100 1017.0
20181120110607 37 119 4.0 7.0 0.04 0.06 0.05 100 1017.0
20181120110107 37 70 4.0 7.0 0.04 0.06 0.04 100 1017.0
20181120105607 37 57 3.0 7.0 0.04 0.06 0.04 100 1017.0
20181120105107 37 151 3.0 6.0 0.03 0.05 0.03 100 1017.0
20181120104607 37 8 2.0 5.0 0.03 0.05 0.03 100 1017.0
20181120104107 37 120 3.0 7.0 0.03 0.04 0.03 100 1017.0
20181120103607 38 117 2.0 6.0 0.02 0.04 0.02 100 1017.0
20181120103107 38 108 3.0 5.0 0.02 0.04 0.02 100 1017.0
20181120102608 38 110 3.0 5.0 0.02 0.04 0.02 100 1016.0
20181120102107 38 149 3.0 6.0 0.01 0.04 0.01 100 1016.0
20181120101607 38 62 5.0 8.0 0.01 0.04 0.01 100 1016.0
20181120101107 38 123 4.0 6.0 0.01 0.03 0.01 100 1016.0
20181120100607 38 45 3.0 7.0 0.01 0.04 0.01 100 1016.0
20181120100107 38 98 4.0 8.0 0.01 0.04 0.01 100 1016.0
20181120095607 39 153 3.0 3.0 0.01 0.05 0.01 100 1016.0
20181120095107 39 124 5.0 13.0 0.00 0.04 0.00 100 1016.0
20181120094607 39 78 8.0 14.0 0.00 0.04 0.00 100 1016.0
20181120094107 40 129 3.0 7.0 0.00 0.04 0.00 100 1016.0
20181120093607 40 79 3.0 7.0 0.00 0.04 0.00 100 1016.0
20181120093107 40 54 4.0 9.0 0.00 0.04 0.00 100 1016.0
20181120092606 40 75 3.0 7.0 0.00 0.04 0.00 100 1016.0
20181120092107 40 7 0.0 7.0 0.00 0.04 0.00 100 1016.0
20181120091607 40 93 5.0 9.0 0.00 0.04 0.00 100 1016.0
20181120091107 40 346 1.0 5.0 0.00 0.04 0.00 100 1016.0
20181120090607 40 180 0.0 2.0 0.00 0.04 0.00 100 1016.0
20181120090107 40 346 2.0 6.0 0.00 0.04 0.00 100 1016.0
20181120085607 40 338 1.0 7.0 0.00 0.04 0.00 100 1016.0
20181120085107 40 105 1.0 7.0 0.00 0.04 0.00 100 1016.0
20181120084608 40 71 3.0 7.0 0.00 0.04 0.00 100 1016.0
20181120084107 40 56 6.0 12.0 0.00 0.04 0.00 100 1016.0
20181120083607 40 131 3.0 7.0 0.00 0.04 0.00 100 1016.0
20181120083108 40 82 9.0 14.0 0.00 0.04 0.00 100 1016.0
20181120082607 40 58 5.0 9.0 0.00 0.04 0.00 100 1017.0
20181120082106 40 134 2.0 5.0 0.00 0.04 0.00 100 1017.0
20181120081607 40 127 1.0 6.0 0.00 0.04 0.00 100 1017.0
20181120081107 40 112 6.0 10.0 0.00 0.04 0.00 100 1017.0
20181120080606 40 32 6.0 10.0 0.00 0.04 0.00 100 1017.0
20181120080107 39 63 5.0 16.0 0.00 0.04 0.00 100 1017.0
20181120075607 39 126 4.0 8.0 0.00 0.04 0.00 100 1017.0
20181120075108 39 64 6.0 13.0 0.00 0.04 0.00 100 1017.0
20181120074607 39 71 7.0 13.0 0.00 0.04 0.00 100 1017.0
20181120074107 39 143 7.0 14.0 0.00 0.04 0.00 100 1017.0
20181120073608 39 140 3.0 12.0 0.00 0.04 0.00 100 1017.0
20181120073107 39 73 7.0 12.0 0.00 0.04 0.00 100 1017.0
20181120072607 39 128 7.0 13.0 0.00 0.04 0.00 100 1017.0
20181120072107 39 79 3.0 9.0 0.00 0.04 0.00 100 1017.0
20181120071608 38 89 9.0 15.0 0.00 0.04 0.00 100 1017.0
20181120071107 38 330 4.0 9.0 0.00 0.04 0.00 100 1018.0
20181120070607 38 101 9.0 13.0 0.00 0.04 0.00 100 1018.0
20181120070107 38 86 5.0 15.0 0.00 0.04 0.00 100 1018.0
20181120065607 38 110 7.0 15.0 0.00 0.04 0.00 100 1017.0
20181120065107 38 89 5.0 12.0 0.00 0.04 0.00 100 1017.0
20181120064607 38 112 9.0 15.0 0.00 0.04 0.00 100 1017.0
20181120064107 38 88 12.0 20.0 0.00 0.04 0.00 100 1016.0
20181120063607 38 64 6.0 12.0 0.00 0.04 0.00 100 1016.0
20181120063107 38 108 12.0 15.0 0.00 0.04 0.00 100 1016.0
20181120062607 38 105 12.0 17.0 0.00 0.04 0.00 100 1017.0
20181120062107 38 101 8.0 15.0 0.00 0.04 0.00 100 1017.0
20181120061606 38 113 8.0 13.0 0.00 0.04 0.00 100 1017.0
20181120061107 38 67 6.0 12.0 0.00 0.04 0.00 100 1017.0
20181120060607 38 72 6.0 21.0 0.00 0.04 0.00 100 1017.0
20181120060107 38 88 9.0 21.0 0.00 0.04 0.00 100 1017.0
20181120055607 38 105 8.0 15.0 0.00 0.04 0.00 100 1017.0
20181120055107 38 105 8.0 16.0 0.00 0.04 0.00 100 1017.0
20181120054607 38 86 6.0 16.0 0.00 0.04 0.00 100 1017.0
20181120054107 38 71 8.0 14.0 0.00 0.04 0.00 100 1017.0
20181120053607 38 82 5.0 12.0 0.00 0.04 0.00 100 1017.0
20181120053107 38 86 7.0 12.0 0.00 0.04 0.00 100 1017.0
20181120052606 38 90 10.0 16.0 0.00 0.04 0.00 100 1017.0
20181120052106 38 104 11.0 14.0 0.00 0.04 0.00 100 1017.0
20181120051607 38 93 8.0 13.0 0.00 0.04 0.00 100 1017.0
20181120051107 38 112 8.0 15.0 0.00 0.04 0.00 100 1018.0
20181120050607 38 102 6.0 12.0 0.00 0.04 0.00 100 1018.0
20181120050108 38 116 8.0 12.0 0.00 0.04 0.00 100 1018.0
20181120045607 38 118 6.0 12.0 0.00 0.04 0.00 100 1018.0
20181120045107 38 132 6.0 9.0 0.00 0.04 0.00 100 1018.0
20181120044607 38 88 6.0 15.0 0.00 0.04 0.00 100 1018.0
20181120044107 38 99 10.0 15.0 0.00 0.04 0.00 100 1018.0
20181120043607 38 118 9.0 12.0 0.00 0.04 0.00 100 1018.0
20181120043107 38 84 4.0 9.0 0.00 0.04 0.00 100 1018.0
20181120042607 38 113 8.0 15.0 0.00 0.04 0.00 100 1018.0
20181120042107 38 137 7.0 10.0 0.00 0.04 0.00 100 1018.0
20181120041606 38 126 7.0 10.0 0.00 0.04 0.00 100 1018.0
20181120041107 38 118 6.0 9.0 0.00 0.04 0.00 100 1019.0
20181120040607 37 104 6.0 14.0 0.00 0.04 0.00 100 1019.0
20181120040107 37 135 3.0 10.0 0.00 0.04 0.00 100 1019.0
20181120035607 37 147 4.0 8.0 0.00 0.04 0.00 100 1019.0
20181120035106 37 129 5.0 7.0 0.00 0.04 0.00 100 1019.0
20181120034607 37 144 3.0 5.0 0.00 0.04 0.00 100 1019.0
20181120034107 37 145 3.0 7.0 0.00 0.04 0.00 100 1018.0
20181120033607 37 120 5.0 7.0 0.00 0.04 0.00 100 1018.0
20181120033107 37 150 5.0 9.0 0.00 0.04 0.00 100 1018.0
20181120032607 37 140 5.0 8.0 0.00 0.04 0.00 100 1018.0
20181120032107 37 144 5.0 5.0 0.00 0.04 0.00 100 1018.0
20181120031607 37 128 3.0 7.0 0.00 0.04 0.00 100 1018.0
20181120031107 37 138 4.0 7.0 0.00 0.04 0.00 100 1018.0
20181120030607 37 160 5.0 7.0 0.00 0.04 0.00 100 1018.0
20181120030107 37 131 6.0 8.0 0.00 0.04 0.00 100 1018.0
20181120025607 37 160 6.0 9.0 0.00 0.04 0.00 100 1019.0
20181120025107 37 151 3.0 7.0 0.00 0.04 0.00 100 1019.0
20181120024607 37 127 5.0 7.0 0.00 0.04 0.00 100 1019.0
20181120024106 37 124 3.0 6.0 0.00 0.04 0.00 100 1019.0
20181120023607 37 107 5.0 10.0 0.00 0.04 0.00 100 1019.0
20181120023107 37 122 4.0 10.0 0.00 0.04 0.00 100 1019.0
20181120022607 37 143 6.0 10.0 0.00 0.04 0.00 100 1019.0
20181120022107 37 132 6.0 9.0 0.00 0.04 0.00 100 1019.0
20181120021607 37 110 8.0 12.0 0.00 0.04 0.00 100 1019.0
20181120021107 37 97 4.0 12.0 0.00 0.04 0.00 100 1020.0
20181120020607 37 92 7.0 12.0 0.00 0.04 0.00 100 1020.0
20181120020107 37 82 6.0 12.0 0.00 0.04 0.00 100 1020.0
20181120015607 37 92 6.0 10.0 0.00 0.04 0.00 100 1020.0
20181120015107 37 145 6.0 10.0 0.00 0.04 0.00 100 1020.0
20181120014607 37 130 4.0 9.0 0.00 0.04 0.00 100 1020.0
20181120014107 37 117 5.0 10.0 0.00 0.04 0.00 100 1020.0
20181120013607 37 97 5.0 8.0 0.00 0.04 0.00 100 1020.0
20181120013107 37 140 4.0 10.0 0.00 0.04 0.00 100 1020.0
20181120012607 37 134 6.0 10.0 0.00 0.04 0.00 100 1021.0
20181120012107 37 138 6.0 9.0 0.00 0.04 0.00 100 1021.0
20181120011607 37 133 6.0 17.0 0.00 0.04 0.00 100 1021.0
20181120011107 37 110 6.0 13.0 0.00 0.04 0.00 100 1021.0
20181120010607 37 72 6.0 9.0 0.00 0.04 0.00 100 1021.0
20181120010107 37 116 8.0 10.0 0.00 0.04 0.00 100 1021.0
20181120005607 37 136 7.0 9.0 0.00 0.04 0.00 100 1021.0
20181120005108 37 96 5.0 7.0 0.00 0.04 0.00 100 1021.0
20181120004607 37 141 6.0 9.0 0.00 0.04 0.00 100 1021.0
20181120004107 37 125 7.0 10.0 0.00 0.04 0.00 100 1021.0
20181120003606 37 162 4.0 9.0 0.00 0.04 0.00 100 1021.0
20181120003107 37 126 6.0 9.0 0.00 0.04 0.00 100 1021.0
20181120002607 37 123 5.0 12.0 0.00 0.04 0.00 100 1021.0
20181120002107 37 118 5.0 8.0 0.00 0.04 0.00 100 1021.0
20181120001607 37 138 6.0 10.0 0.00 0.04 0.00 100 1021.0
20181120001107 37 146 7.0 12.0 0.00 0.04 0.00 100 1021.0
20181120000607 37 107 6.0 10.0 0.00 0.04 0.00 100 1021.0
20181120000106 37 109 5.0 7.0 0.00 0.04 0.00 100 1021.0
20181119235606 37 123 6.0 9.0 0.00 0.04 0.00 100 1022.0
20181119235108 37 109 6.0 9.0 0.00 0.04 0.00 100 1022.0
20181119234607 37 120 6.0 9.0 0.00 0.04 0.00 100 1022.0
20181119234107 37 103 6.0 8.0 0.00 0.04 0.00 100 1021.0
20181119233607 37 70 9.0 15.0 0.00 0.04 0.00 100 1021.0
20181119233107 37 107 8.0 14.0 0.00 0.04 0.00 100 1021.0
20181119232607 37 115 8.0 12.0 0.00 0.04 0.00 100 1021.0
20181119232107 37 109 6.0 15.0 0.00 0.04 0.00 100 1021.0
20181119231607 37 95 9.0 20.0 0.00 0.04 0.00 100 1021.0
20181119231108 37 102 12.0 16.0 0.00 0.04 0.00 100 1021.0
20181119230607 37 107 12.0 15.0 0.00 0.04 0.00 100 1021.0
20181119230106 37 112 8.0 16.0 0.00 0.04 0.00 100 1021.0
20181119225606 37 107 10.0 14.0 0.00 0.04 0.04 100 1021.0
20181119225107 37 100 9.0 15.0 0.00 0.04 0.04 100 1021.0
20181119224607 37 115 7.0 17.0 0.00 0.04 0.04 100 1021.0
20181119224107 37 101 13.0 20.0 0.00 0.04 0.04 100 1021.0
20181119223606 37 99 8.0 16.0 0.00 0.04 0.04 100 1021.0
20181119223107 37 105 9.0 13.0 0.00 0.04 0.04 100 1021.0
20181119222607 37 97 11.0 17.0 0.00 0.04 0.04 100 1021.0
20181119222106 37 101 9.0 15.0 0.00 0.04 0.04 100 1021.0
20181119221606 37 87 9.0 16.0 0.00 0.04 0.04 100 1021.0
20181119221107 37 99 10.0 18.0 0.00 0.04 0.04 100 1020.0
20181119220607 37 115 5.0 13.0 0.00 0.04 0.04 100 1020.0
20181119220107 37 117 10.0 15.0 0.00 0.04 0.04 100 1020.0
20181119215607 37 115 5.0 10.0 0.00 0.04 0.04 100 1020.0
20181119215106 37 113 7.0 13.0 0.00 0.04 0.04 100 1020.0
20181119214607 37 104 6.0 13.0 0.00 0.04 0.04 100 1020.0
20181119214107 37 98 5.0 12.0 0.00 0.04 0.04 100 1020.0
20181119213606 37 87 7.0 13.0 0.00 0.04 0.04 100 1020.0
20181119213107 37 106 7.0 13.0 0.00 0.04 0.04 100 1020.0
20181119212607 37 115 6.0 10.0 0.00 0.04 0.04 100 1020.0
20181119212107 37 95 5.0 12.0 0.00 0.04 0.04 100 1020.0
20181119211607 37 120 4.0 8.0 0.00 0.04 0.04 100 1020.0
20181119211106 37 118 5.0 7.0 0.00 0.04 0.04 100 1020.0
20181119210607 37 119 4.0 7.0 0.00 0.04 0.04 100 1020.0
20181119210107 37 123 1.0 3.0 0.00 0.04 0.04 100 1020.0
20181119205606 37 315 0.0 2.0 0.00 0.04 0.04 100 1020.0
20181119205106 37 338 1.0 2.0 0.00 0.04 0.04 100 1020.0
20181119204607 37 45 1.0 2.0 0.00 0.04 0.04 100 1020.0
20181119204107 37 104 2.0 5.0 0.00 0.04 0.04 100 1020.0
20181119203606 37 91 3.0 5.0 0.00 0.04 0.04 100 1020.0
20181119203107 37 88 5.0 8.0 0.00 0.04 0.04 100 1020.0
20181119202607 37 79 3.0 7.0 0.00 0.04 0.04 100 1020.0
20181119202107 37 113 2.0 7.0 0.00 0.04 0.04 100 1020.0
20181119201607 37 136 3.0 7.0 0.00 0.04 0.04 100 1020.0
20181119201107 37 121 5.0 7.0 0.00 0.04 0.04 100 1020.0
20181119200606 37 116 3.0 6.0 0.00 0.04 0.04 100 1020.0
20181119200107 37 164 2.0 5.0 0.00 0.04 0.04 100 1020.0
20181119195606 37 86 3.0 6.0 0.00 0.04 0.04 100 1020.0
20181119195107 37 158 2.0 5.0 0.00 0.04 0.04 100 1020.0
20181119194607 37 133 2.0 5.0 0.00 0.04 0.04 100 1020.0
20181119194106 37 159 2.0 3.0 0.00 0.04 0.04 100 1020.0
20181119193607 37 185 0.0 1.0 0.00 0.04 0.04 100 1020.0
20181119193106 37 126 1.0 3.0 0.00 0.04 0.04 100 1020.0
20181119192607 37 116 2.0 5.0 0.00 0.04 0.04 100 1020.0
20181119192107 37 140 4.0 6.0 0.00 0.04 0.04 100 1020.0
20181119191606 37 95 5.0 7.0 0.00 0.04 0.04 100 1020.0
20181119191107 37 117 4.0 6.0 0.00 0.04 0.04 100 1020.0
20181119190607 37 149 3.0 7.0 0.00 0.04 0.04 100 1020.0
20181119190107 37 134 3.0 6.0 0.00 0.04 0.04 100 1020.0
20181119185606 37 126 2.0 5.0 0.00 0.04 0.04 100 1020.0
20181119185107 36 115 5.0 9.0 0.00 0.04 0.04 100 1020.0
20181119184607 37 102 3.0 8.0 0.00 0.04 0.04 100 1020.0
20181119184107 36 94 1.0 5.0 0.00 0.04 0.04 100 1020.0
20181119183607 36 135 1.0 2.0 0.00 0.04 0.04 100 1020.0
20181119183106 37 70 2.0 3.0 0.00 0.04 0.04 100 1020.0
20181119182606 36 150 3.0 5.0 0.00 0.04 0.04 100 1020.0
20181119182107 36 136 2.0 5.0 0.00 0.04 0.04 100 1020.0
20181119181607 36 101 3.0 3.0 0.00 0.04 0.04 100 1020.0
20181119181107 36 119 2.0 6.0 0.00 0.04 0.04 100 1019.0
20181119180607 36 150 1.0 2.0 0.00 0.04 0.04 100 1019.0
20181119180107 36 135 0.0 0.0 0.00 0.04 0.04 100 1019.0
20181119175606 36 135 0.0 0.0 0.00 0.04 0.04 100 1019.0
20181119175107 36 135 0.0 0.0 0.00 0.04 0.04 100 1019.0
20181119174606 36 135 0.0 0.0 0.00 0.04 0.04 100 1019.0
20181119174107 36 166 0.0 0.0 0.00 0.04 0.04 100 1019.0
20181119173607 36 112 0.0 1.0 0.00 0.04 0.04 100 1019.0
20181119173107 36 127 2.0 2.0 0.00 0.04 0.04 100 1019.0
20181119172607 36 112 1.0 3.0 0.00 0.04 0.04 100 1020.0
20181119172107 36 152 2.0 3.0 0.00 0.04 0.04 100 1020.0
20181119171607 36 135 2.0 2.0 0.00 0.04 0.04 100 1020.0
20181119171106 36 148 2.0 3.0 0.00 0.04 0.04 100 1020.0
20181119170606 36 158 0.0 3.0 0.00 0.04 0.04 100 1020.0
20181119170106 36 139 2.0 3.0 0.00 0.04 0.04 100 1020.0
20181119165606 36 158 2.0 3.0 0.00 0.04 0.04 100 1020.0
20181119165106 36 0 0.0 0.0 0.00 0.04 0.04 100 1020.0
20181119164607 36 0 0.0 0.0 0.00 0.04 0.04 100 1020.0
20181119164107 36 0 0.0 0.0 0.00 0.04 0.04 100 1020.0
20181119163607 36 0 0.0 0.0 0.00 0.04 0.04 100 1020.0
20181119163107 36 0 0.0 0.0 0.00 0.04 0.04 100 1020.0
20181119162607 36 0 0.0 0.0 0.00 0.04 0.04 100 1020.0
20181119162107 36 0 0.0 0.0 0.00 0.04 0.04 100 1020.0
20181119161607 36 0 0.0 0.0 0.00 0.04 0.04 100 1020.0
20181119161106 36 0 0.0 0.0 0.00 0.04 0.04 100 1019.0
20181119160606 36 0 0.0 0.0 0.00 0.04 0.04 100 1019.0
20181119160107 36 0 0.0 0.0 0.00 0.04 0.04 100 1019.0
20181119155606 36 0 0.0 1.0 0.00 0.04 0.04 100 1019.0
20181119155107 36 0 1.0 2.0 0.00 0.04 0.04 100 1019.0
20181119154606 36 348 2.0 3.0 0.00 0.04 0.04 100 1019.0
20181119154107 36 350 2.0 3.0 0.00 0.04 0.04 100 1019.0
20181119153606 36 338 1.0 2.0 0.00 0.04 0.04 100 1019.0
20181119153106 36 338 1.0 3.0 0.00 0.04 0.04 100 1019.0
20181119152606 36 338 2.0 3.0 0.00 0.04 0.04 100 1019.0
20181119152106 36 338 0.0 2.0 0.00 0.04 0.04 100 1019.0
20181119151606 36 338 0.0 2.0 0.00 0.04 0.04 100 1019.0
20181119151107 36 338 1.0 3.0 0.00 0.04 0.04 100 1019.0
20181119150607 36 338 2.0 3.0 0.00 0.04 0.04 100 1019.0
20181119150107 36 338 2.0 3.0 0.00 0.04 0.04 100 1019.0
20181119145607 36 0 1.0 1.0 0.00 0.04 0.04 100 1019.0
20181119145106 36 338 1.0 2.0 0.00 0.04 0.04 100 1019.0
20181119144607 36 342 2.0 3.0 0.00 0.04 0.04 100 1019.0
20181119144106 36 338 1.0 5.0 0.00 0.04 0.04 100 1019.0
20181119143606 36 338 2.0 5.0 0.00 0.04 0.04 100 1019.0
20181119143106 36 338 2.0 5.0 0.00 0.04 0.04 100 1019.0
20181119142606 36 357 3.0 5.0 0.00 0.04 0.04 100 1019.0
20181119142106 37 338 5.0 6.0 0.00 0.04 0.04 100 1019.0
20181119141606 37 343 4.0 5.0 0.00 0.04 0.04 100 1019.0
20181119141107 37 331 3.0 5.0 0.00 0.04 0.04 100 1020.0
20181119140606 37 338 2.0 5.0 0.00 0.04 0.04 100 1020.0
20181119140107 37 338 2.0 5.0 0.00 0.04 0.04 100 1020.0
20181119135606 37 317 3.0 5.0 0.00 0.04 0.04 100 1019.0
20181119135106 37 302 3.0 5.0 0.00 0.04 0.04 100 1019.0
20181119134607 37 338 2.0 5.0 0.00 0.04 0.04 100 1019.0